Flag for Argentina Weather past 2 weeks in Corrientes, Corrientes, Argentina

Now
79 °F

Partly sunny.


Feels Like: 81 °F
Forecast: N/A
Wind: 12 mph from East

Location: Resistencia Aero.

Current Time: Dec 27, 2014 at 5:51:13 PM

Latest Report: Dec 27, 2014 at 5:00 PM


Visibility: N/A

Pressure: 29.77 "Hg

Humidity: 74%

Dew point: 70 °F

Location of CorrientesLocation

Historic Weather in Corrientes — Graph

°F

Corrientes temperature yesterday

Maximum temperature yesterday: 97 °F (at 5:00 PM)
Minimum temperature yesterday: 77 °F (at 6:00 AM)
Average temperature yesterday: 85 °F

Past Weeks' High & Low Weather Summary

 TemperatureHumidityPressure
High97 °F (Dec 26, 5:00 PM)100% (Dec 13, 6:00 AM)30.21 "Hg (Dec 13, 6:00 AM)
Low59 °F (Dec 24, 4:00 AM)38% (Dec 14, 6:00 PM)29.36 "Hg (Dec 20, 7:00 PM)
Average79 °F74%29.81 "Hg
* Reported Dec 12 4:00 PM — Dec 27 4:00 PM, Corrientes, Weather by CustomWeather, © 2014

Note: Actual official high and low records may vary slightly from our data, if they occured in-between our weather recording intervals... More about our weather records

Advertising

Corrientes weather history for previous 24 hours

 ConditionsComfort  
Time TempWeatherWind HumidityBarometerVisibility
4:00 PM
Dec 27
79 °FBroken clouds.17 mph79%29.80 "HgN/A
3:00 PM75 °FMore clouds than sun.18 mph83%29.83 "HgN/A
2:00 PM73 °FLight rain. Mostly cloudy.16 mph89%29.86 "HgN/A
1:00 PM82 °FOvercast.12 mph79%29.86 "HgN/A
12:00 PM86 °FBroken clouds.14 mph70%29.86 "HgN/A
11:00 AM64 °FScattered clouds.13 mph100%29.86 "HgN/A
10:00 AM79 °FBroken clouds.13 mph89%29.83 "HgN/A
9:00 AM79 °FPartly sunny.9 mph89%29.83 "HgN/A
8:00 AM77 °FPartly sunny.6 mph94%29.83 "HgN/A
7:00 AM75 °FPartly sunny.8 mph94%29.80 "HgN/A
6:00 AM77 °FMore clouds than sun.6 mph94%29.77 "HgN/A
5:00 AM77 °FThunderstorms. Overcast.6 mph89%29.77 "HgN/A
4:00 AM77 °FOvercast.12 mph89%29.80 "HgN/A
3:00 AM81 °FOvercast.6 mph79%29.71 "HgN/A
2:00 AM84 °FOvercast.9 mph79%29.71 "HgN/A
1:00 AM84 °FPassing clouds.7 mph79%29.71 "HgN/A
12:00 AM86 °FPassing clouds.8 mph75%29.74 "HgN/A
11:00 PM
Dec 26
86 °FPassing clouds.3 mph75%29.74 "HgN/A
10:00 PM86 °FPassing clouds.6 mph75%29.71 "HgN/A
9:00 PM88 °FClear.3 mph70%29.68 "Hg10 mi
8:00 PM91 °FClear.7 mph59%29.68 "Hg10 mi
7:00 PM93 °FPassing clouds.8 mph53%29.68 "HgN/A
6:00 PM95 °FScattered clouds.12 mph53%29.71 "HgN/A
5:00 PM97 °FBroken clouds.9 mph50%29.71 "HgN/A
Weather by CustomWeather, © 2014

See weather overviewHow to use our weather pages